QPF
0.04 0.07 0.09 0.14 0.27 0.32 0.32 0.42 0.55 0.52 0.50 0.53 0.49 0.45 0.43 0.43 0.42 0.37 0.32 0.30 0.28 0.28 0.26 0.25 0.25 0.24 0.21 0.18 0.15 0.13 0.12 0.11 0.10 0.08 0.06 0.04 0.03 0.03 0.03 0.04 0.05 0.07 0.09
0.04 0.07 0.10 0.17 0.27 0.33 0.42 0.43 0.63 0.74 0.73 0.71 0.64 0.57 0.52 0.48 0.44 0.41 0.38 0.39 0.38 0.33 0.29 0.29 0.29 0.27 0.22 0.19 0.16 0.15 0.14 0.12 0.10 0.08 0.06 0.04 0.02 0.03 0.03 0.03 0.03 0.03 0.05
0.04 0.06 0.08 0.14 0.22 0.28 0.37 0.47 0.56 0.79 0.93 0.91 0.80 0.69 0.60 0.53 0.42 0.34 0.34 0.37 0.36 0.34 0.33 0.35 0.26 0.18 0.15 0.13 0.13 0.13 0.14 0.12 0.09 0.08 0.06 0.04 0.02 0.01 0.01 0.01 0.02 0.02 0.02
0.06 0.07 0.09 0.13 0.20 0.31 0.38 0.50 0.75 0.94 1.09 1.07 1.02 0.97 0.82 0.66 0.51 0.38 0.32 0.32 0.32 0.30 0.27 0.24 0.20 0.17 0.14 0.12 0.10 0.09 0.09 0.08 0.06 0.05 0.04 0.03 0.02 0.02 0.02 0.01 0.01 0.01 0.01
0.10 0.10 0.11 0.12 0.17 0.26 0.35 0.45 0.66 0.80 0.95 1.07 1.06 1.00 0.91 0.76 0.63 0.47 0.33 0.25 0.23 0.20 0.18 0.15 0.13 0.13 0.12 0.10 0.08 0.07 0.06 0.05 0.04 0.03 0.03 0.03 0.02 0.02 0.02 0.02 0.02 0.02 0.03
0.09 0.09 0.09 0.10 0.12 0.20 0.29 0.33 0.38 0.52 0.66 0.79 0.85 0.85 0.81 0.70 0.58 0.46 0.35 0.23 0.16 0.14 0.12 0.10 0.08 0.06 0.05 0.04 0.03 0.03 0.02 0.02 0.01 0.01 0.01 0.02 0.02 0.02 0.02 0.03 0.03 0.03 0.03
0.06 0.07 0.08 0.07 0.09 0.12 0.18 0.22 0.26 0.38 0.51 0.59 0.64 0.60 0.59 0.53 0.45 0.37 0.30 0.23 0.16 0.12 0.11 0.08 0.05 0.03 0.02 0.02 0.01 0.01 0.01 0.01 0.01 0.01 0.01 0.01 0.01 0.01 0.02 0.02 0.02 0.02 0.02
0.04 0.06 0.07 0.06 0.07 0.08 0.11 0.14 0.16 0.21 0.26 0.32 0.35 0.34 0.32 0.29 0.26 0.25 0.21 0.16 0.11 0.07 0.05 0.04 0.02 0.02 0.01 0.01 0.01 0.00 0.00 0.00 0.00 0.00 0.00 0.00 0.01 0.01 0.01 0.01 0.01 0.02 0.02
0.04 0.04 0.04 0.03 0.05 0.07 0.07 0.08 0.09 0.11 0.13 0.16 0.17 0.18 0.17 0.14 0.13 0.11 0.08 0.06 0.04 0.03 0.02 0.02 0.01 0.01 0.00 0.00 0.00 0.00 0.00 0.00 0.00 0.00 0.00 0.00 0.01 0.00 0.00 0.01 0.01 0.01 0.01
0.02 0.02 0.03 0.02 0.04 0.06 0.06 0.06 0.08 0.09 0.10 0.10 0.10 0.12 0.12 0.10 0.10 0.09 0.05 0.03 0.02 0.02 0.01 0.01 0.02 0.01 0.00 0.00 0.00 0.00 0.00 0.00 0.00 0.00 0.00 0.00 0.00 0.00 0.00 0.00 0.00 0.00 0.00
0.02 0.02 0.03 0.02 0.03 0.04 0.04 0.05 0.07 0.07 0.08 0.08 0.09 0.09 0.08 0.06 0.05 0.05 0.04 0.03 0.02 0.02 0.01 0.01 0.00 0.00 0.00 0.00 0.00 0.00 0.00 0.00 0.00 0.00 0.00 0.00 0.00 0.00 0.00 0.00 0.00 0.00 0.00
0.04 0.03 0.03 0.03 0.03 0.04 0.04 0.04 0.05 0.07 0.07 0.06 0.05 0.07 0.06 0.05 0.03 0.03 0.03 0.02 0.02 0.01 0.01 0.01 0.00 0.00 0.00 0.00 0.00 0.00 0.00 0.00 0.00 0.00 0.00 0.00 0.00 0.00 0.00 0.00 0.00 0.00 0.00
0.09 0.06 0.05 0.04 0.03 0.03 0.02 0.03 0.03 0.04 0.05 0.05 0.03 0.02 0.03 0.02 0.01 0.01 0.01 0.01 0.01 0.01 0.00 0.00 0.00 0.00 0.00 0.00 0.00 0.00 0.00 0.00 0.00 0.00 0.00 0.00 0.00 0.00 0.00 0.00 0.00 0.00 0.00
0.12 0.09 0.07 0.06 0.04 0.03 0.02 0.01 0.01 0.01 0.02 0.03 0.02 0.01 0.01 0.01 0.01 0.00 0.00 0.00 0.00 0.00 0.00 0.00 0.00 0.00 0.00 0.00 0.00 0.00 0.00 0.00 0.00 0.00 0.00 0.00 0.00 0.00 0.00 0.00 0.00 0.00 0.00
0.10 0.07 0.05 0.04 0.03 0.02 0.02 0.01 0.01 0.01 0.01 0.01 0.00 0.00 0.00 0.00 0.00 0.00 0.00 0.00 0.00 0.00 0.00 0.00 0.00 0.00 0.00 0.00 0.00 0.00 0.00 0.00 0.00 0.00 0.00 0.00 0.00 0.00 0.00 0.00 0.00 0.00 0.00
0.06 0.03 0.03 0.02 0.03 0.02 0.01 0.01 0.00 0.00 0.00 0.00 0.00 0.00 0.00 0.00 0.00 0.00 0.00 0.00 0.00 0.00 0.00 0.00 0.00 0.00 0.00 0.00 0.00 0.00 0.00 0.00 0.00 0.00 0.00 0.00 0.00 0.00 0.00 0.00 0.00 0.00 0.00
0.07 0.03 0.02 0.02 0.02 0.02 0.01 0.00 0.00 0.00 0.00 0.00 0.00 0.00 0.00 0.00 0.00 0.00 0.00 0.00 0.00 0.00 0.00 0.00 0.00 0.00 0.00 0.00 0.00 0.00 0.00 0.00 0.00 0.00 0.00 0.00 0.00 0.00 0.00 0.00 0.00 0.00 0.00
0.08 0.04 0.03 0.02 0.02 0.02 0.01 0.00 0.00 0.00 0.00 0.00 0.00 0.00 0.00 0.00 0.00 0.00 0.00 0.00 0.00 0.00 0.00 0.00 0.00 0.00 0.00 0.00 0.00 0.00 0.00 0.00 0.00 0.00 0.00 0.00 0.00 0.00 0.00 0.00 0.00 0.00 0.00
0.07 0.05 0.04 0.03 0.03 0.02 0.02 0.01 0.00 0.00 0.00 0.00 0.00 0.00 0.00 0.00 0.00 0.00 0.00 0.00 0.00 0.00 0.00 0.00 0.00 0.00 0.00 0.00 0.00 0.00 0.00 0.00 0.00 0.00 0.00 0.00 0.00 0.00 0.00 0.00 0.00 0.00 0.00
0.07 0.06 0.04 0.03 0.02 0.01 0.01 0.00 0.00 0.00 0.00 0.00 0.00 0.00 0.00 0.00 0.00 0.00 0.00 0.00 0.00 0.00 0.00 0.00 0.00 0.00 0.00 0.00 0.00 0.00 0.00 0.00 0.00 0.00 0.00 0.00 0.00 0.00 0.00 0.00 0.00 0.00 0.00
0.05 0.04 0.03 0.03 0.02 0.01 0.01 0.01 0.01 0.01 0.00 0.00 0.00 0.00 0.00 0.00 0.00 0.00 0.00 0.00 0.00 0.00 0.00 0.00 0.00 0.00 0.00 0.00 0.00 0.00 0.00 0.00 0.00 0.00 0.00 0.00 0.00 0.00 0.00 0.00 0.00 0.00 0.00
0.05 0.03 0.03 0.03 0.03 0.01 0.01 0.01 0.01 0.01 0.00 0.00 0.00 0.00 0.00 0.00 0.00 0.00 0.00 0.00 0.00 0.00 0.00 0.00 0.00 0.00 0.00 0.00 0.00 0.00 0.00 0.00 0.00 0.00 0.00 0.00 0.00 0.00 0.00 0.00 0.00 0.00 0.00
0.03 0.02 0.02 0.03 0.02 0.01 0.01 0.01 0.00 0.00 0.00 0.00 0.00 0.00 0.00 0.00 0.00 0.00 0.00 0.00 0.00 0.00 0.00 0.00 0.00 0.00 0.00 0.00 0.00 0.00 0.00 0.00 0.00 0.00 0.00 0.00 0.00 0.00 0.00 0.00 0.00 0.00 0.00
0.02 0.02 0.02 0.01 0.01 0.01 0.01 0.01 0.00 0.00 0.00 0.00 0.00 0.00 0.00 0.00 0.00 0.00 0.00 0.00 0.00 0.00 0.00 0.00 0.00 0.00 0.00 0.00 0.00 0.00 0.00 0.00 0.00 0.00 0.00 0.00 0.00 0.01 0.01 0.01 0.01 0.00 0.00
0.01 0.02 0.02 0.01 0.01 0.01 0.02 0.02 0.01 0.00 0.01 0.01 0.02 0.02 0.01 0.00 0.00 0.00 0.00 0.00 0.00 0.00 0.00 0.00 0.00 0.00 0.00 0.00 0.00 0.00 0.00 0.00 0.00 0.00 0.00 0.00 0.00 0.00 0.00 0.00 0.01 0.01 0.00
0.01 0.02 0.02 0.01 0.01 0.01 0.02 0.01 0.00 0.00 0.01 0.02 0.03 0.02 0.01 0.00 0.00 0.00 0.00 0.00 0.00 0.00 0.00 0.00 0.00 0.00 0.00 0.00 0.00 0.00 0.00 0.00 0.00 0.00 0.00 0.00 0.00 0.00 0.00 0.00 0.00 0.00 0.00
MSLP
1007.79 1007.89 1008.08 1008.35 1008.67 1009.03 1009.42 1009.83 1010.26 1010.72 1011.21 1011.73 1012.28 1012.87 1013.47 1014.09 1014.70 1015.29 1015.86 1016.38 1016.86 1017.28 1017.65 1017.97 1018.25 1018.51 1018.75 1018.99 1019.24 1019.49 1019.76 1020.04 1020.31 1020.57 1020.80 1020.97 1021.08 1021.13 1021.10 1021.02 1020.89 1020.72 1020.54
1008.43 1008.50 1008.64 1008.83 1009.05 1009.29 1009.56 1009.85 1010.19 1010.59 1011.04 1011.56 1012.13 1012.74 1013.38 1014.02 1014.66 1015.28 1015.87 1016.42 1016.92 1017.38 1017.79 1018.15 1018.47 1018.76 1019.02 1019.26 1019.50 1019.75 1020.00 1020.26 1020.53 1020.79 1021.04 1021.25 1021.42 1021.53 1021.57 1021.56 1021.48 1021.37 1021.23
1009.27 1009.33 1009.42 1009.52 1009.62 1009.73 1009.86 1010.02 1010.25 1010.57 1010.97 1011.48 1012.06 1012.70 1013.38 1014.07 1014.75 1015.40 1016.02 1016.59 1017.12 1017.61 1018.05 1018.45 1018.81 1019.12 1019.41 1019.66 1019.90 1020.13 1020.37 1020.61 1020.87 1021.13 1021.38 1021.62 1021.82 1021.98 1022.07 1022.11 1022.09 1022.03 1021.92
1010.24 1010.30 1010.35 1010.38 1010.36 1010.33 1010.31 1010.34 1010.45 1010.68 1011.04 1011.52 1012.12 1012.80 1013.52 1014.26 1014.99 1015.68 1016.33 1016.93 1017.49 1018.00 1018.47 1018.89 1019.28 1019.62 1019.93 1020.20 1020.45 1020.68 1020.91 1021.14 1021.38 1021.62 1021.87 1022.11 1022.32 1022.50 1022.62 1022.70 1022.71 1022.68 1022.60
1011.26 1011.34 1011.37 1011.33 1011.22 1011.06 1010.90 1010.80 1010.80 1010.94 1011.25 1011.72 1012.33 1013.04 1013.82 1014.62 1015.40 1016.13 1016.81 1017.44 1018.01 1018.53 1019.01 1019.46 1019.86 1020.23 1020.56 1020.86 1021.12 1021.36 1021.59 1021.82 1022.04 1022.28 1022.50 1022.73 1022.93 1023.10 1023.24 1023.32 1023.35 1023.33 1023.26
1012.26 1012.37 1012.40 1012.32 1012.14 1011.88 1011.61 1011.39 1011.30 1011.37 1011.64 1012.09 1012.72 1013.47 1014.30 1015.15 1015.97 1016.74 1017.45 1018.09 1018.66 1019.18 1019.67 1020.11 1020.53 1020.91 1021.27 1021.59 1021.88 1022.14 1022.38 1022.60 1022.82 1023.04 1023.24 1023.44 1023.62 1023.77 1023.89 1023.96 1023.99 1023.97 1023.89
1013.16 1013.34 1013.39 1013.30 1013.07 1012.75 1012.41 1012.11 1011.95 1011.97 1012.21 1012.66 1013.30 1014.08 1014.95 1015.84 1016.70 1017.50 1018.21 1018.85 1019.41 1019.92 1020.38 1020.81 1021.22 1021.61 1021.98 1022.32 1022.64 1022.92 1023.18 1023.41 1023.63 1023.82 1024.01 1024.18 1024.32 1024.45 1024.54 1024.60 1024.61 1024.57 1024.48
1013.94 1014.19 1014.28 1014.21 1013.98 1013.65 1013.27 1012.94 1012.74 1012.74 1012.96 1013.41 1014.06 1014.87 1015.76 1016.67 1017.55 1018.35 1019.07 1019.69 1020.22 1020.70 1021.12 1021.53 1021.92 1022.29 1022.66 1023.01 1023.34 1023.64 1023.92 1024.16 1024.37 1024.56 1024.72 1024.87 1024.99 1025.08 1025.15 1025.18 1025.18 1025.12 1025.02
1014.58 1014.90 1015.07 1015.04 1014.85 1014.54 1014.18 1013.86 1013.66 1013.66 1013.89 1014.34 1015.00 1015.80 1016.70 1017.61 1018.48 1019.28 1019.97 1020.56 1021.06 1021.48 1021.87 1022.23 1022.58 1022.93 1023.28 1023.63 1023.95 1024.26 1024.54 1024.78 1024.99 1025.17 1025.32 1025.44 1025.54 1025.62 1025.67 1025.69 1025.67 1025.60 1025.48
1015.10 1015.50 1015.74 1015.79 1015.67 1015.42 1015.12 1014.85 1014.70 1014.72 1014.96 1015.42 1016.07 1016.86 1017.74 1018.63 1019.47 1020.23 1020.89 1021.44 1021.89 1022.28 1022.61 1022.92 1023.23 1023.54 1023.85 1024.17 1024.47 1024.76 1025.03 1025.26 1025.46 1025.63 1025.76 1025.87 1025.96 1026.02 1026.06 1026.07 1026.05 1025.98 1025.86
1015.52 1016.00 1016.32 1016.46 1016.44 1016.29 1016.09 1015.90 1015.82 1015.89 1016.15 1016.61 1017.24 1018.00 1018.83 1019.67 1020.47 1021.18 1021.80 1022.30 1022.72 1023.06 1023.35 1023.62 1023.87 1024.13 1024.40 1024.67 1024.93 1025.18 1025.41 1025.61 1025.79 1025.93 1026.05 1026.14 1026.22 1026.27 1026.31 1026.32 1026.29 1026.22 1026.10
1015.89 1016.44 1016.84 1017.08 1017.17 1017.14 1017.06 1016.99 1016.99 1017.12 1017.41 1017.86 1018.46 1019.17 1019.93 1020.70 1021.44 1022.10 1022.66 1023.14 1023.52 1023.83 1024.10 1024.33 1024.54 1024.75 1024.96 1025.17 1025.37 1025.56 1025.73 1025.88 1026.01 1026.12 1026.21 1026.29 1026.35 1026.39 1026.42 1026.42 1026.40 1026.33 1026.22
1016.25 1016.85 1017.32 1017.66 1017.87 1017.97 1018.02 1018.07 1018.18 1018.37 1018.69 1019.13 1019.68 1020.32 1021.00 1021.69 1022.35 1022.95 1023.47 1023.92 1024.29 1024.59 1024.84 1025.05 1025.24 1025.40 1025.55 1025.69 1025.81 1025.93 1026.02 1026.10 1026.17 1026.24 1026.29 1026.33 1026.37 1026.40 1026.41 1026.40 1026.37 1026.30 1026.18
1016.63 1017.26 1017.79 1018.21 1018.53 1018.77 1018.95 1019.13 1019.33 1019.59 1019.93 1020.36 1020.85 1021.41 1022.00 1022.60 1023.17 1023.71 1024.20 1024.63 1025.00 1025.31 1025.57 1025.78 1025.94 1026.07 1026.17 1026.23 1026.27 1026.30 1026.31 1026.31 1026.31 1026.31 1026.31 1026.31 1026.32 1026.32 1026.30 1026.27 1026.22 1026.13 1026.00
1017.02 1017.67 1018.24 1018.74 1019.15 1019.51 1019.82 1020.11 1020.41 1020.73 1021.09 1021.49 1021.93 1022.40 1022.89 1023.39 1023.89 1024.37 1024.83 1025.25 1025.63 1025.96 1026.23 1026.45 1026.61 1026.71 1026.76 1026.76 1026.72 1026.66 1026.58 1026.49 1026.42 1026.35 1026.29 1026.25 1026.21 1026.18 1026.13 1026.06 1025.97 1025.85 1025.70
1017.43 1018.08 1018.67 1019.22 1019.71 1020.17 1020.59 1020.98 1021.36 1021.74 1022.11 1022.48 1022.86 1023.25 1023.65 1024.07 1024.49 1024.91 1025.34 1025.75 1026.14 1026.49 1026.79 1027.03 1027.19 1027.27 1027.28 1027.22 1027.11 1026.97 1026.81 1026.65 1026.50 1026.36 1026.26 1026.17 1026.08 1026.01 1025.92 1025.81 1025.68 1025.51 1025.32
1017.85 1018.47 1019.07 1019.64 1020.19 1020.73 1021.23 1021.72 1022.16 1022.58 1022.96 1023.31 1023.64 1023.96 1024.28 1024.61 1024.96 1025.34 1025.73 1026.14 1026.53 1026.90 1027.22 1027.46 1027.62 1027.69 1027.67 1027.57 1027.40 1027.20 1026.97 1026.75 1026.54 1026.36 1026.20 1026.07 1025.95 1025.84 1025.71 1025.55 1025.37 1025.16 1024.93
1018.24 1018.83 1019.41 1020.00 1020.58 1021.17 1021.74 1022.28 1022.78 1023.23 1023.63 1023.96 1024.25 1024.52 1024.77 1025.04 1025.33 1025.66 1026.02 1026.41 1026.80 1027.17 1027.50 1027.75 1027.90 1027.96 1027.91 1027.77 1027.57 1027.32 1027.05 1026.79 1026.54 1026.33 1026.15 1025.99 1025.84 1025.69 1025.53 1025.34 1025.12 1024.86 1024.58
1018.62 1019.16 1019.71 1020.28 1020.88 1021.49 1022.10 1022.69 1023.23 1023.70 1024.11 1024.44 1024.71 1024.94 1025.15 1025.36 1025.61 1025.90 1026.24 1026.60 1026.98 1027.34 1027.65 1027.89 1028.03 1028.07 1028.00 1027.85 1027.62 1027.35 1027.06 1026.78 1026.53 1026.30 1026.11 1025.94 1025.78 1025.61 1025.42 1025.20 1024.94 1024.65 1024.33
1018.97 1019.46 1019.98 1020.53 1021.12 1021.73 1022.36 1022.96 1023.52 1024.01 1024.43 1024.76 1025.03 1025.24 1025.43 1025.63 1025.85 1026.11 1026.41 1026.75 1027.09 1027.43 1027.72 1027.93 1028.05 1028.08 1028.00 1027.83 1027.60 1027.33 1027.04 1026.77 1026.52 1026.30 1026.11 1025.94 1025.78 1025.60 1025.40 1025.16 1024.88 1024.56 1024.21
1019.33 1019.77 1020.24 1020.75 1021.32 1021.91 1022.53 1023.13 1023.69 1024.20 1024.62 1024.97 1025.24 1025.46 1025.66 1025.85 1026.06 1026.30 1026.58 1026.88 1027.20 1027.49 1027.75 1027.93 1028.03 1028.03 1027.94 1027.77 1027.55 1027.29 1027.02 1026.77 1026.54 1026.33 1026.16 1026.00 1025.84 1025.67 1025.46 1025.21 1024.92 1024.58 1024.21
1019.70 1020.10 1020.53 1021.00 1021.52 1022.08 1022.66 1023.24 1023.80 1024.29 1024.72 1025.08 1025.38 1025.62 1025.84 1026.04 1026.26 1026.50 1026.76 1027.03 1027.31 1027.57 1027.78 1027.93 1027.99 1027.98 1027.89 1027.72 1027.52 1027.28 1027.04 1026.81 1026.61 1026.43 1026.27 1026.12 1025.97 1025.80 1025.59 1025.34 1025.04 1024.70 1024.32
1020.11 1020.47 1020.86 1021.28 1021.76 1022.27 1022.80 1023.34 1023.86 1024.35 1024.78 1025.15 1025.47 1025.74 1025.99 1026.22 1026.46 1026.70 1026.95 1027.20 1027.44 1027.66 1027.83 1027.94 1027.98 1027.95 1027.86 1027.71 1027.52 1027.31 1027.10 1026.90 1026.72 1026.57 1026.42 1026.28 1026.13 1025.97 1025.76 1025.52 1025.22 1024.88 1024.50
1020.57 1020.90 1021.25 1021.63 1022.04 1022.49 1022.96 1023.45 1023.92 1024.38 1024.80 1025.18 1025.53 1025.83 1026.12 1026.38 1026.64 1026.89 1027.14 1027.37 1027.59 1027.77 1027.90 1027.97 1027.99 1027.95 1027.85 1027.72 1027.56 1027.38 1027.20 1027.03 1026.88 1026.73 1026.60 1026.46 1026.31 1026.15 1025.94 1025.70 1025.42 1025.09 1024.72
1021.06 1021.37 1021.69 1022.02 1022.37 1022.75 1023.16 1023.58 1024.00 1024.42 1024.82 1025.20 1025.56 1025.89 1026.21 1026.50 1026.79 1027.05 1027.30 1027.52 1027.71 1027.85 1027.95 1028.00 1028.00 1027.95 1027.86 1027.74 1027.60 1027.45 1027.31 1027.16 1027.02 1026.89 1026.76 1026.63 1026.48 1026.31 1026.12 1025.88 1025.61 1025.30 1024.96
1021.54 1021.84 1022.13 1022.42 1022.72 1023.04 1023.37 1023.72 1024.09 1024.46 1024.83 1025.20 1025.57 1025.92 1026.26 1026.58 1026.88 1027.15 1027.40 1027.60 1027.77 1027.89 1027.97 1027.99 1027.98 1027.93 1027.84 1027.74 1027.63 1027.51 1027.39 1027.27 1027.15 1027.03 1026.91 1026.77 1026.63 1026.46 1026.27 1026.05 1025.80 1025.52 1025.19
Thickness
5718 5724 5729 5732 5731 5730 5728 5727 5724 5721 5718 5713 5710 5705 5703 5701 5700 5699 5699 5698 5698 5697 5697 5696 5695 5693 5692 5690 5689 5688 5685 5682 5682 5680 5677 5677 5676 5675 5674 5673 5672 5671 5669
5706 5712 5716 5720 5720 5720 5719 5717 5716 5715 5713 5709 5705 5700 5696 5693 5692 5690 5689 5690 5689 5689 5689 5688 5686 5684 5683 5682 5681 5681 5677 5675 5673 5673 5670 5667 5666 5665 5664 5662 5661 5659 5658
5694 5699 5704 5707 5709 5709 5709 5709 5709 5708 5706 5703 5699 5694 5689 5685 5681 5680 5679 5679 5680 5680 5679 5678 5677 5675 5674 5673 5672 5672 5672 5668 5665 5665 5664 5661 5659 5656 5653 5650 5648 5646 5645
5682 5686 5690 5693 5695 5697 5699 5699 5699 5699 5699 5698 5695 5690 5685 5677 5672 5671 5668 5667 5668 5670 5669 5668 5667 5666 5665 5663 5663 5663 5663 5661 5658 5655 5653 5651 5651 5649 5644 5640 5637 5635 5632
5669 5672 5676 5679 5683 5686 5687 5689 5690 5690 5690 5690 5689 5683 5675 5670 5664 5662 5659 5657 5657 5658 5658 5657 5656 5655 5654 5653 5652 5652 5651 5650 5647 5644 5642 5641 5639 5637 5636 5630 5626 5623 5620
5657 5660 5663 5668 5671 5674 5676 5678 5679 5679 5680 5680 5678 5673 5668 5663 5657 5652 5649 5647 5646 5645 5645 5645 5645 5643 5642 5642 5641 5640 5638 5636 5635 5632 5630 5627 5625 5623 5621 5617 5612 5609 5607
5647 5648 5650 5654 5657 5660 5663 5665 5667 5666 5666 5667 5664 5662 5659 5656 5649 5644 5640 5637 5635 5634 5633 5633 5633 5632 5631 5630 5629 5627 5625 5623 5622 5619 5616 5613 5610 5608 5606 5604 5599 5595 5592
5635 5636 5637 5640 5642 5645 5648 5650 5652 5652 5652 5653 5651 5649 5646 5643 5638 5634 5630 5627 5624 5622 5622 5622 5621 5620 5619 5617 5616 5615 5612 5610 5608 5606 5602 5599 5596 5594 5592 5589 5587 5583 5579
5625 5625 5625 5627 5630 5631 5633 5636 5638 5638 5637 5638 5637 5634 5632 5629 5625 5621 5618 5615 5613 5611 5610 5609 5609 5607 5606 5604 5603 5601 5599 5597 5594 5591 5588 5585 5582 5579 5577 5574 5572 5570 5566
5615 5614 5614 5615 5616 5618 5620 5622 5623 5623 5623 5623 5623 5620 5617 5614 5611 5608 5606 5604 5602 5601 5599 5598 5597 5595 5592 5591 5589 5587 5585 5583 5579 5576 5573 5570 5567 5564 5562 5559 5556 5553 5550
5605 5604 5603 5603 5605 5606 5607 5608 5609 5609 5609 5609 5608 5606 5602 5600 5598 5596 5593 5591 5590 5589 5587 5586 5583 5581 5579 5578 5576 5573 5571 5569 5565 5562 5559 5555 5552 5549 5546 5543 5540 5537 5534
5596 5593 5593 5593 5593 5593 5594 5595 5595 5595 5594 5594 5593 5591 5588 5586 5584 5581 5580 5579 5577 5575 5573 5572 5570 5568 5565 5564 5562 5559 5556 5553 5550 5547 5545 5541 5539 5535 5532 5529 5525 5522 5518
5587 5584 5582 5582 5581 5581 5582 5582 5582 5581 5580 5580 5579 5576 5574 5573 5570 5568 5567 5565 5564 5562 5560 5558 5555 5553 5551 5549 5547 5545 5542 5539 5537 5534 5531 5528 5525 5522 5518 5515 5512 5508 5505
5579 5575 5572 5571 5570 5570 5570 5570 5569 5568 5568 5566 5564 5562 5560 5559 5557 5555 5554 5552 5550 5548 5546 5544 5541 5539 5537 5535 5534 5532 5529 5527 5524 5522 5519 5516 5513 5510 5506 5503 5500 5497 5494
5572 5568 5564 5561 5560 5559 5558 5558 5557 5556 5555 5553 5551 5549 5547 5546 5545 5543 5541 5539 5537 5534 5532 5531 5529 5526 5525 5523 5521 5519 5517 5515 5513 5510 5508 5505 5503 5500 5496 5494 5490 5487 5485
5566 5561 5557 5554 5552 5550 5548 5547 5545 5544 5543 5542 5540 5538 5536 5535 5532 5530 5528 5526 5523 5521 5520 5517 5515 5513 5512 5511 5510 5508 5505 5503 5501 5499 5496 5494 5492 5490 5487 5485 5483 5480 5478
5560 5555 5551 5547 5544 5542 5540 5537 5536 5534 5533 5531 5529 5527 5526 5523 5521 5519 5516 5514 5511 5509 5506 5504 5503 5501 5500 5499 5498 5496 5494 5492 5490 5488 5486 5485 5483 5481 5479 5478 5477 5475 5473
5554 5548 5544 5540 5536 5534 5531 5529 5527 5525 5523 5521 5519 5517 5516 5513 5510 5508 5506 5503 5501 5499 5497 5494 5492 5491 5489 5488 5487 5485 5484 5482 5481 5479 5478 5477 5476 5475 5473 5473 5472 5471 5470
5547 5542 5537 5533 5529 5527 5524 5521 5519 5516 5514 5512 5510 5508 5507 5504 5502 5499 5496 5494 5492 5490 5488 5486 5484 5481 5479 5478 5478 5477 5475 5475 5474 5473 5472 5472 5471 5470 5469 5468 5466 5467 5467
5540 5534 5530 5526 5522 5519 5517 5514 5510 5508 5506 5504 5502 5500 5498 5496 5493 5491 5489 5487 5485 5482 5480 5478 5475 5473 5471 5471 5471 5470 5470 5469 5469 5469 5468 5467 5466 5466 5465 5463 5462 5462 5462
5533 5528 5523 5519 5515 5512 5510 5506 5503 5500 5499 5497 5495 5492 5490 5488 5486 5484 5482 5480 5478 5475 5472 5470 5468 5466 5465 5465 5465 5465 5464 5463 5463 5463 5463 5463 5462 5462 5462 5461 5459 5457 5457
5526 5522 5517 5512 5508 5506 5503 5499 5496 5494 5492 5490 5487 5484 5482 5482 5479 5477 5475 5473 5471 5468 5465 5463 5461 5460 5459 5459 5459 5459 5458 5458 5457 5458 5458 5458 5458 5459 5458 5457 5456 5455 5455
5521 5516 5512 5507 5503 5501 5498 5495 5491 5489 5486 5483 5480 5477 5475 5473 5471 5470 5468 5465 5463 5461 5459 5457 5455 5454 5454 5454 5454 5454 5455 5455 5454 5453 5453 5454 5455 5455 5454 5453 5452 5452 5451
5516 5511 5507 5503 5498 5495 5493 5490 5486 5483 5480 5476 5473 5471 5468 5465 5464 5462 5461 5459 5457 5455 5454 5452 5450 5449 5449 5450 5450 5450 5451 5451 5451 5450 5450 5451 5450 5450 5449 5449 5447 5446 5444
5511 5507 5503 5498 5494 5491 5487 5484 5481 5477 5473 5470 5467 5464 5462 5459 5457 5455 5453 5452 5451 5450 5449 5447 5446 5445 5446 5445 5445 5445 5447 5447 5447 5447 5447 5447 5446 5445 5444 5443 5442 5441 5440
5508 5503 5498 5494 5490 5486 5482 5479 5476 5472 5468 5464 5461 5458 5456 5453 5451 5450 5448 5447 5447 5447 5445 5444 5443 5442 5443 5443 5444 5444 5444 5445 5444 5443 5442 5440 5438 5437 5435 5435 5435 5435 5434